User: anonymous   Login
Location: Unspecified
(0.0000°N, 0.0000°E)
Time: 14:27:46
(UTC+00:00)
Language:

Meteor 3-3 - Orbit

View from above orbital plane
View from above orbital plane
View from above satellite
View from above satellite

Ground track
Ground track

The orbit data is extracted from the following two-line orbital elements,

1 20305U 89086A   18020.79369635 -.00000789 +00000-0 -24929-2 0  9994
2 20305 082.5497 070.0734 0008046 107.0013 011.6671 13.04621217346628
Epoch (UTC): 20 January 2018 19:02:55
Eccentricity: 0.0008046
inclination: 82.5497°
perigee height: 1238 km
apogee height: 1250 km
right ascension of ascending node: 70.0734°
argument of perigee: 107.0013°
revolutions per day: 13.04621217
mean anomaly at epoch: 11.6671°
orbit number at epoch: 34662

The dashed part of the orbit path shows where the satellite is in the earth's shadow,  

DLR